DW2147 Weather Reports


Display with metric or nautical units.
time (UTC)temp
F
wind
direction
speed
MPH
gust
MPH
rain 1hr
in
rain 24hr
in
rain mn
in
humidity
%
barometer
mb
20260503001252 44 0 3.0 8.0 0.00 0.02 0.00 63 1016.2
20260503000750 44 0 3.0 8.0 0.00 0.02 0.00 63 1016.2
20260503000252 44 0 3.0 11.0 0.00 0.02 0.00 63 1016.1
20260502235750 44 0 4.0 11.0 0.00 0.02 0.00 63 1016.1
20260502235250 44 0 4.0 11.0 0.00 0.02 0.00 63 1016.1
20260502234749 44 0 4.0 11.0 0.00 0.02 0.00 63 1016.0
20260502234249 44 0 5.0 10.0 0.00 0.02 0.00 62 1016.0
20260502233750 44 0 6.0 13.0 0.00 0.02 0.00 62 1016.0
20260502233522 44 0 5.0 13.0 0.00 0.02 0.00 62 1015.9
20260502233022 45 0 5.0 11.0 0.00 0.02 0.00 62 1015.9
20260502232746 45 0 5.0 10.0 0.00 0.02 0.00 62 1015.9
20260502231747 45 0 4.0 11.0 0.00 0.02 0.00 62 1015.8
20260502231244 45 0 4.0 8.0 0.00 0.02 0.00 62 1015.7
20260502230743 45 0 3.0 8.0 0.00 0.02 0.00 63 1015.6
20260502230240 45 0 3.0 9.0 0.00 0.02 0.00 63 1015.7
20260502225740 45 0 4.0 9.0 0.00 0.02 0.00 63 1015.6
20260502225240 45 0 4.0 8.0 0.00 0.02 0.00 63 1015.7
20260502224739 46 0 5.0 13.0 0.00 0.02 0.00 63 1015.7
20260502224238 46 0 6.0 14.0 0.00 0.02 0.00 62 1015.8
20260502223737 46 0 6.0 14.0 0.00 0.02 0.00 61 1015.8
20260502223238 47 0 5.0 11.0 0.00 0.02 0.00 59 1015.6
20260502222738 47 0 5.0 11.0 0.00 0.02 0.00 59 1015.7
20260502222237 47 0 6.0 14.0 0.00 0.02 0.00 59 1015.6
20260502221737 47 0 8.0 14.0 0.00 0.02 0.00 58 1015.5
20260502221236 47 0 7.0 12.0 0.00 0.03 0.00 57 1015.5
20260502220734 47 0 5.0 13.0 0.00 0.03 0.00 57 1015.4
20260502220235 47 0 5.0 13.0 0.00 0.03 0.00 57 1015.3
20260502220005 47 0 4.0 11.0 0.00 0.03 0.00 57 1015.4
20260502215233 47 0 5.0 12.0 0.00 0.03 0.00 59 1015.2
20260502214733 47 0 5.0 12.0 0.00 0.03 0.00 58 1015.3
20260502214235 47 0 5.0 11.0 0.00 0.03 0.00 58 1015.2
20260502214004 47 0 5.0 11.0 0.00 0.03 0.00 58 1015.2
20260502213232 47 0 6.0 14.0 0.00 0.03 0.00 57 1015.2
20260502212730 47 0 7.0 15.0 0.00 0.03 0.00 57 1015.2
20260502212229 48 0 7.0 15.0 0.00 0.03 0.00 57 1015.2
20260502212003 48 0 6.0 13.0 0.00 0.03 0.00 56 1015.2
20260502211853 48 0 5.0 11.0 0.00 0.03 0.00 57 1015.2
20260502210730 48 346 6.0 15.0 0.00 0.03 0.00 57 1015.0
20260502210503 49 0 8.0 16.0 0.00 0.03 0.00 57 1015.0
20260502210004 49 30 8.0 16.0 0.00 0.03 0.00 56 1015.0
20260502205230 49 0 8.0 14.0 0.00 0.03 0.00 54 1014.9
20260502204958 49 0 8.0 13.0 0.00 0.03 0.00 51 1014.9
20260502204229 49 0 6.0 13.0 0.00 0.03 0.00 50 1014.9
20260502203728 49 0 6.0 13.0 0.00 0.03 0.00 52 1014.9
20260502203228 49 0 6.0 13.0 0.00 0.03 0.00 52 1014.9
20260502202726 49 0 5.0 13.0 0.00 0.03 0.00 53 1015.0
20260502202227 49 0 7.0 13.0 0.00 0.03 0.00 52 1014.9
20260502201955 50 0 8.0 14.0 0.00 0.03 0.00 48 1015.0
20260502201224 50 336 8.0 15.0 0.00 0.03 0.00 48 1015.0
20260502200954 50 0 8.0 15.0 0.00 0.03 0.00 47 1014.9
20260502200223 50 0 7.0 12.0 0.00 0.03 0.00 48 1014.9
20260502195724 50 0 6.0 18.0 0.00 0.03 0.00 48 1015.0
20260502195223 50 0 6.0 18.0 0.00 0.03 0.00 46 1014.9
20260502194722 50 0 6.0 12.0 0.00 0.03 0.00 49 1015.0
20260502194453 50 294 9.0 18.0 0.00 0.03 0.00 48 1015.1
20260502194347 50 348 9.0 18.0 0.00 0.03 0.00 48 1015.2
20260502193229 49 0 7.0 16.0 0.00 0.03 0.00 52 1015.2
20260502193224 50 0 6.0 16.0 0.00 0.03 0.00 51 1015.2
20260502192221 49 0 8.0 16.0 0.00 0.03 0.00 50 1015.3
20260502191719 49 0 7.0 14.0 0.00 0.03 0.00 51 1015.5
20260502191218 49 342 6.0 14.0 0.00 0.03 0.00 51 1015.4
20260502190949 49 0 5.0 13.0 0.00 0.03 0.00 52 1015.6
20260502190218 49 263 4.0 11.0 0.00 0.03 0.00 52 1015.5
20260502185719 49 0 5.0 11.0 0.00 0.03 0.00 52 1015.6
20260502185219 49 0 5.0 14.0 0.00 0.03 0.00 52 1015.6
20260502184723 49 0 5.0 12.0 0.00 0.03 0.00 53 1015.6
20260502184718 49 319 6.0 14.0 0.00 0.03 0.00 52 1015.6
20260502183717 49 0 6.0 14.0 0.00 0.03 0.00 52 1015.7
20260502183222 49 0 7.0 15.0 0.00 0.03 0.00 52 1015.7
20260502183217 48 0 6.0 14.0 0.00 0.03 0.00 51 1015.6
20260502182218 49 0 8.0 15.0 0.00 0.03 0.00 50 1015.7
20260502181716 50 0 7.0 14.0 0.00 0.03 0.00 52 1015.7
20260502181216 50 26 7.0 13.0 0.00 0.03 0.00 50 1015.6
20260502180715 50 0 6.0 12.0 0.00 0.03 0.00 51 1015.7
20260502180446 50 300 4.0 11.0 0.00 0.03 0.00 50 1015.7
20260502170211 48 0 9.0 16.0 0.00 0.03 0.00 53 1015.4
20260502164208 51 0 6.0 14.0 0.00 0.03 0.00 49 1015.7
20260502163707 51 0 6.0 14.0 0.00 0.03 0.00 52 1015.7
20260502163205 50 0 5.0 11.0 0.00 0.03 0.00 51 1015.7
20260502162706 49 0 4.0 12.0 0.00 0.03 0.00 54 1015.6
20260502162205 49 0 6.0 16.0 0.00 0.03 0.00 49 1015.6
20260502161942 49 0 6.0 16.0 0.00 0.03 0.00 53 1015.7
20260502161206 48 0 5.0 14.0 0.00 0.03 0.00 54 1015.7
20260502160706 48 0 4.0 10.0 0.00 0.03 0.00 54 1015.5
20260502160205 48 308 3.0 10.0 0.00 0.03 0.00 59 1015.5
20260502152158 47 223 3.0 10.0 0.00 0.03 0.00 62 1015.8
20260502151658 47 330 5.0 11.0 0.00 0.03 0.00 62 1015.9
20260502151159 47 0 6.0 11.0 0.00 0.03 0.00 63 1015.9
20260502150658 47 0 5.0 10.0 0.00 0.03 0.00 64 1016.0
20260502150158 47 0 5.0 10.0 0.00 0.03 0.00 66 1016.0
20260502130642 41 0 3.0 8.0 0.00 0.03 0.00 75 1015.6
20260502130141 41 202 4.0 8.0 0.00 0.03 0.00 76 1015.7
20260502123136 39 0 1.0 3.0 0.00 0.03 0.00 77 1015.8
20260502122636 38 0 0.0 3.0 0.00 0.03 0.00 77 1015.8
20260502122133 38 0 0.0 2.0 0.00 0.03 0.00 76 1015.6
20260502121634 38 0 0.0 0.0 0.00 0.03 0.00 76 1015.7
20260502121130 37 180 0.0 0.0 0.00 0.03 0.00 76 1015.6
20260502120630 37 0 0.0 1.0 0.00 0.03 0.00 76 1015.6
20260502120131 37 0 0.0 1.0 0.00 0.03 0.00 76 1015.6
20260502115631 37 180 0.0 1.0 0.00 0.03 0.00 75 1015.6
20260502115129 36 0 1.0 2.0 0.00 0.03 0.00 75 1015.5
20260502114628 36 0 1.0 2.0 0.00 0.03 0.00 75 1015.6
20260502114128 36 0 1.0 3.0 0.00 0.03 0.00 75 1016.4
20260502113628 36 0 0.0 3.0 0.00 0.03 0.00 75 1016.5
20260502113130 35 0 0.0 2.0 0.00 0.03 0.00 75 1016.5
20260502112622 35 182 1.0 2.0 0.00 0.03 0.00 74 1016.6
20260502112119 35 0 0.0 2.0 0.00 0.03 0.00 74 1016.6
20260502111620 35 0 0.0 0.0 0.00 0.03 0.00 74 1016.6
20260502111120 35 0 0.0 0.0 0.00 0.03 0.00 74 1016.6
20260502110618 34 0 0.0 0.0 0.00 0.03 0.00 74 1016.6
20260502110120 34 0 0.0 0.0 0.00 0.03 0.00 74 1016.5
20260502105615 34 0 0.0 0.0 0.00 0.03 0.00 74 1016.4
20260502105114 34 0 0.0 0.0 0.00 0.03 0.00 74 1016.2
20260502104613 34 0 0.0 0.0 0.00 0.03 0.00 74 1016.2
20260502104113 34 182 0.0 0.0 0.00 0.03 0.00 74 1016.3
20260502103612 34 182 0.0 1.0 0.00 0.03 0.00 73 1016.3
20260502103112 34 182 0.0 1.0 0.00 0.03 0.00 73 1016.2
20260502102607 34 182 0.0 1.0 0.00 0.03 0.00 73 1016.3
20260502102107 34 182 0.0 1.0 0.00 0.03 0.00 73 1016.2
20260502101607 34 182 1.0 3.0 0.00 0.03 0.00 73 1016.1
20260502101334 34 182 2.0 3.0 0.00 0.03 0.00 73 1016.1
20260502100604 35 182 1.0 3.0 0.00 0.03 0.00 73 1016.1
20260502100103 35 184 0.0 3.0 0.00 0.03 0.00 73 1016.1
20260502091045 35 0 0.0 0.0 0.00 0.03 0.00 73 1016.0
20260502090541 35 0 0.0 0.0 0.00 0.03 0.00 73 1016.1
20260502071519 35 0 0.0 0.0 0.00 0.03 0.00 71 1015.9
20260502071020 36 0 0.0 0.0 0.00 0.03 0.00 71 1016.0
20260502070516 36 0 0.0 0.0 0.00 0.03 0.00 71 1016.0
20260502070014 36 0 0.0 0.0 0.00 0.03 0.00 71 1016.1
20260502065516 36 0 0.0 0.0 0.00 0.03 0.00 71 1016.1
20260502065017 36 0 0.0 0.0 0.00 0.03 0.00 71 1016.2
20260502064512 36 0 0.0 0.0 0.00 0.03 0.00 71 1016.3
20260502064508 36 0 0.0 0.0 0.00 0.03 0.00 71 1016.3
20260502063507 36 0 0.0 0.0 0.00 0.03 0.00 71 1016.2
20260502063235 36 306 0.0 0.0 0.00 0.03 0.00 71 1016.3
20260502062504 37 307 0.0 0.0 0.00 0.03 0.00 71 1016.3
20260502062004 37 308 0.0 0.0 0.00 0.03 0.00 71 1016.3
20260502061503 37 308 0.0 1.0 0.00 0.03 0.00 71 1016.4
20260502061001 37 309 0.0 1.0 0.00 0.03 0.00 71 1016.2
20260502060501 37 0 0.0 1.0 0.00 0.03 0.00 70 1016.3
20260502060001 37 307 0.0 2.0 0.00 0.03 0.00 70 1016.4
20260502055500 37 306 1.0 2.0 0.00 0.03 0.00 70 1016.4
20260502054957 37 308 1.0 2.0 0.00 0.03 0.00 70 1016.4
20260502054457 38 0 0.0 0.0 0.00 0.03 0.00 70 1016.5
20260502054452 37 0 0.0 2.0 0.00 0.03 0.00 70 1016.5
20260502053723 38 307 0.0 0.0 0.00 0.03 0.00 69 1016.5
20260502052951 38 310 0.0 0.0 0.00 0.03 0.00 70 1016.5
20260502052451 38 309 0.0 0.0 0.00 0.03 0.00 70 1016.6
20260502051951 38 310 0.0 0.0 0.00 0.03 0.00 70 1016.5
20260502051719 38 310 0.0 0.0 0.00 0.03 0.00 69 1016.5
20260502050949 39 308 0.0 0.0 0.00 0.03 0.00 70 1016.4
20260502050449 39 308 0.0 0.0 0.00 0.03 0.00 69 1016.3
20260502050218 39 308 0.0 0.0 0.00 0.03 0.00 69 1016.2
20260502045445 39 0 0.0 0.0 0.00 0.03 0.00 69 1016.3
20260502045219 40 310 0.0 0.0 0.00 0.03 0.00 69 1016.2
20260502044711 40 310 0.0 0.0 0.00 0.03 0.00 69 1016.4
20260502043937 40 310 0.0 0.0 0.00 0.03 0.00 69 1016.3
20260502043435 40 310 0.0 0.0 0.00 0.03 0.00 69 1016.3
20260502042933 40 309 0.0 0.0 0.00 0.03 0.00 69 1016.3
20260502042436 40 310 0.0 2.0 0.00 0.03 0.00 69 1016.3
20260502041932 41 309 0.0 3.0 0.00 0.03 0.00 69 1016.2
20260502041430 41 0 0.0 3.0 0.00 0.03 0.00 68 1016.4
20260502040931 41 0 0.0 1.0 0.00 0.03 0.00 68 1016.3
20260502040430 41 0 0.0 2.0 0.00 0.03 0.00 68 1016.3
20260502035930 41 0 1.0 3.0 0.00 0.03 0.03 68 1016.4
20260502035431 41 0 1.0 3.0 0.00 0.03 0.03 68 1016.5
20260502034931 42 0 1.0 4.0 0.00 0.03 0.03 68 1016.5
20260502034656 42 0 1.0 5.0 0.00 0.03 0.03 68 1016.2
20260502033925 42 0 2.0 5.0 0.00 0.03 0.03 69 1016.1
20260502033426 42 0 3.0 9.0 0.00 0.03 0.03 68 1016.2
20260502032926 42 0 3.0 9.0 0.00 0.03 0.03 68 1016.1
20260502032424 42 0 4.0 8.0 0.00 0.03 0.03 68 1015.9
20260502031923 42 0 3.0 9.0 0.00 0.03 0.03 68 1015.6
20260502031654 42 0 2.0 9.0 0.00 0.03 0.03 68 1015.7
20260502030923 42 0 3.0 9.0 0.00 0.03 0.03 67 1015.6
20260502030424 42 0 4.0 11.0 0.00 0.03 0.03 68 1015.4
20260502025921 42 0 5.0 11.0 0.00 0.03 0.03 67 1015.3
20260502025422 43 0 4.0 11.0 0.00 0.03 0.03 67 1015.2
20260502024919 43 0 3.0 9.0 0.00 0.03 0.03 67 1015.5
20260502024419 43 0 3.0 9.0 0.00 0.03 0.03 67 1015.5
20260502023917 44 0 3.0 10.0 0.00 0.03 0.03 67 1015.4
20260502023416 44 0 4.0 10.0 0.00 0.03 0.03 67 1015.4
20260502023148 44 0 6.0 15.0 0.00 0.03 0.03 67 1015.5
20260502022416 44 0 7.0 15.0 0.00 0.03 0.03 67 1015.6
20260502022145 45 0 6.0 15.0 0.00 0.03 0.03 68 1015.5
20260502021413 45 0 7.0 18.0 0.00 0.03 0.03 68 1015.4
20260502020913 45 0 6.0 18.0 0.00 0.03 0.03 68 1015.4
20260502020417 45 287 4.0 10.0 0.00 0.03 0.03 68 1015.3
20260502015913 46 0 4.0 11.0 0.00 0.03 0.03 68 1015.2
20260502015411 46 0 4.0 11.0 0.00 0.03 0.03 68 1014.9
20260502014910 46 0 3.0 9.0 0.00 0.03 0.03 67 1014.8
20260502014410 46 0 4.0 9.0 0.00 0.03 0.03 68 1014.8
20260502013908 46 0 4.0 9.0 0.00 0.03 0.03 68 1014.6
20260502013407 46 0 3.0 8.0 0.00 0.03 0.03 68 1014.4
20260502012908 46 0 3.0 5.0 0.01 0.03 0.03 68 1014.5
20260502012407 46 341 2.0 5.0 0.01 0.03 0.03 67 1014.3
20260502011907 46 0 2.0 5.0 0.02 0.03 0.03 67 1014.4
20260502011406 47 0 2.0 8.0 0.02 0.03 0.03 67 1014.4
20260502010907 47 0 2.0 8.0 0.02 0.03 0.03 67 1014.4
20260502010637 47 0 3.0 10.0 0.02 0.03 0.03 68 1014.4
20260502005906 47 0 3.0 10.0 0.02 0.03 0.03 68 1014.1
20260502005405 47 217 3.0 6.0 0.02 0.03 0.03 68 1014.0
20260502004905 47 0 3.0 8.0 0.02 0.03 0.03 68 1013.9
20260502004637 47 0 3.0 8.0 0.02 0.03 0.03 69 1013.7
20260502003904 47 0 3.0 11.0 0.02 0.03 0.03 69 1013.6
20260502003405 48 0 5.0 15.0 0.02 0.03 0.03 69 1013.3
20260502002906 48 0 5.0 15.0 0.01 0.02 0.03 69 1013.2
20260502002405 48 0 3.0 9.0 0.01 0.02 0.02 70 1012.8
20260502001904 48 0 3.0 9.0 0.00 0.01 0.01 70 1012.7